AAL2034 KSAN-KPHX

Flight info

Callsign AAL2034
Flight time 0h 52m
Altitude 35000
Route ZZOOO4 HOGGZ HYDRR1
Aircraft A319/M-SDE3FGHIRWY/LB1

Departure

Time 2026-04-24 01:59
Airport San Diego International Airport (KSAN)

Arrival

Time 2026-04-24 02:51
Airport Phoenix Sky Harbor International Airport (KPHX)
Time Latitude Longitude Altitude Speed Heading
2026-04-24 01:37 32.73452 -117.20385 24 ft 0 kts 194°
2026-04-24 01:48 32.73471 -117.20379 25 ft 4 kts 190°
2026-04-24 01:48 32.73498 -117.20375 25 ft 4 kts 177°
2026-04-24 01:48 32.73523 -117.20382 23 ft 4 kts 127°
2026-04-24 01:48 32.73528 -117.20394 22 ft 1 kts 106°
2026-04-24 01:49 32.73528 -117.20395 22 ft 0 kts 106°
2026-04-24 01:52 32.73528 -117.20394 22 ft 1 kts 106°
2026-04-24 01:52 32.73523 -117.20373 23 ft 4 kts 106°
2026-04-24 01:52 32.73514 -117.20337 25 ft 4 kts 106°
2026-04-24 01:52 32.73506 -117.20303 24 ft 5 kts 106°
2026-04-24 01:53 32.73503 -117.20266 26 ft 4 kts 85°
2026-04-24 01:53 32.73522 -117.20235 28 ft 6 kts 40°
2026-04-24 01:53 32.73545 -117.20183 26 ft 8 kts 93°
2026-04-24 01:53 32.73529 -117.20111 26 ft 13 kts 106°
2026-04-24 01:54 32.73499 -117.19985 26 ft 16 kts 106°
2026-04-24 01:54 32.73468 -117.19857 28 ft 16 kts 106°
2026-04-24 01:54 32.73436 -117.19725 27 ft 17 kts 106°
2026-04-24 01:54 32.73403 -117.19586 27 ft 18 kts 106°
2026-04-24 01:55 32.73368 -117.19444 27 ft 18 kts 107°
2026-04-24 01:55 32.73331 -117.19289 24 ft 21 kts 106°
2026-04-24 01:55 32.73291 -117.19125 25 ft 20 kts 106°
2026-04-24 01:55 32.73252 -117.18965 28 ft 20 kts 105°
2026-04-24 01:56 32.73213 -117.18802 27 ft 20 kts 106°
2026-04-24 01:56 32.73172 -117.18642 27 ft 21 kts 107°
2026-04-24 01:56 32.73132 -117.18468 24 ft 23 kts 106°
2026-04-24 01:56 32.73088 -117.18287 24 ft 23 kts 106°
2026-04-24 01:57 32.73041 -117.18095 22 ft 25 kts 106°
2026-04-24 01:57 32.72993 -117.17898 21 ft 25 kts 106°
2026-04-24 01:57 32.72954 -117.17735 20 ft 16 kts 106°
2026-04-24 01:57 32.72970 -117.17620 22 ft 13 kts 60°
2026-04-24 01:58 32.73029 -117.17617 22 ft 11 kts 300°
2026-04-24 01:58 32.73037 -117.17651 21 ft 0 kts 282°
2026-04-24 01:58 32.73040 -117.17664 21 ft 4 kts 283°
2026-04-24 01:59 32.73099 -117.17909 20 ft 71 kts 285°
2026-04-24 01:59 32.73306 -117.18760 26 ft 140 kts 286°
2026-04-24 01:59 32.73622 -117.20008 382 ft 163 kts 287°
2026-04-24 01:59 32.73951 -117.21327 1077 ft 170 kts 286°
2026-04-24 02:00 32.74300 -117.22695 1809 ft 176 kts 287°
2026-04-24 02:00 32.74655 -117.24109 2563 ft 180 kts 287°
2026-04-24 02:00 32.75013 -117.25594 3109 ft 197 kts 285°
2026-04-24 02:00 32.75400 -117.27249 3546 ft 217 kts 285°
2026-04-24 02:01 32.75826 -117.29068 4064 ft 237 kts 285°
2026-04-24 02:01 32.76277 -117.30975 4903 ft 243 kts 285°
2026-04-24 02:01 32.76543 -117.32965 5841 ft 248 kts 264°
2026-04-24 02:01 32.75846 -117.34828 6752 ft 255 kts 228°
2026-04-24 02:02 32.74302 -117.35860 7692 ft 263 kts 192°
2026-04-24 02:02 32.73062 -117.35854 8350 ft 269 kts 169°
2026-04-24 02:02 32.71400 -117.34855 9292 ft 277 kts 143°
2026-04-24 02:02 32.69995 -117.33264 10205 ft 282 kts 134°
2026-04-24 02:03 32.67370 -117.29697 11834 ft 291 kts 134°
2026-04-24 02:03 32.65966 -117.27895 12664 ft 296 kts 137°
2026-04-24 02:03 32.64560 -117.26135 13461 ft 302 kts 132°
2026-04-24 02:04 32.63434 -117.23957 14184 ft 312 kts 115°
2026-04-24 02:04 32.62831 -117.21387 14447 ft 337 kts 97°
2026-04-24 02:04 32.62563 -117.18520 14658 ft 361 kts 96°
2026-04-24 02:04 32.62299 -117.15522 15029 ft 377 kts 96°
2026-04-24 02:05 32.62106 -117.12389 15637 ft 384 kts 89°
2026-04-24 02:05 32.62413 -117.09224 16295 ft 389 kts 76°
2026-04-24 02:05 32.63263 -117.06174 16967 ft 392 kts 66°
2026-04-24 02:05 32.64264 -117.03145 17642 ft 397 kts 66°
2026-04-24 02:06 32.65273 -117.00074 18320 ft 401 kts 66°
2026-04-24 02:06 32.66196 -116.96928 18895 ft 408 kts 74°
2026-04-24 02:06 32.66675 -116.93545 19478 ft 414 kts 85°
2026-04-24 02:06 32.66764 -116.90112 20060 ft 419 kts 89°
2026-04-24 02:07 32.66837 -116.86636 20644 ft 423 kts 88°
2026-04-24 02:07 32.66920 -116.83124 21216 ft 428 kts 88°
2026-04-24 02:07 32.67006 -116.79575 21793 ft 433 kts 88°
2026-04-24 02:07 32.67093 -116.75982 22371 ft 437 kts 88°
2026-04-24 02:08 32.67144 -116.72356 22950 ft 442 kts 90°
2026-04-24 02:08 32.67120 -116.68694 23522 ft 446 kts 91°
2026-04-24 02:08 32.67044 -116.64996 23987 ft 450 kts 92°
2026-04-24 02:08 32.66947 -116.61270 24452 ft 454 kts 92°
2026-04-24 02:09 32.66849 -116.57511 24904 ft 457 kts 92°
2026-04-24 02:09 32.66764 -116.53725 25347 ft 461 kts 92°
2026-04-24 02:09 32.66690 -116.49911 25793 ft 464 kts 92°
2026-04-24 02:09 32.66622 -116.46063 26224 ft 468 kts 92°
2026-04-24 02:10 32.66622 -116.42193 26646 ft 471 kts 86°
2026-04-24 02:10 32.66957 -116.38353 27053 ft 475 kts 83°
2026-04-24 02:10 32.67329 -116.34447 27503 ft 478 kts 84°
2026-04-24 02:10 32.67694 -116.30514 27910 ft 481 kts 84°
2026-04-24 02:11 32.68051 -116.26555 28325 ft 484 kts 84°
2026-04-24 02:11 32.68404 -116.22570 28734 ft 487 kts 84°
2026-04-24 02:11 32.68757 -116.18560 29133 ft 491 kts 84°
2026-04-24 02:11 32.69110 -116.14520 29530 ft 494 kts 84°
2026-04-24 02:12 32.69468 -116.10453 29927 ft 496 kts 84°
2026-04-24 02:12 32.69831 -116.06361 30255 ft 500 kts 84°
2026-04-24 02:12 32.70200 -116.02250 30558 ft 503 kts 84°
2026-04-24 02:12 32.70576 -115.98113 30840 ft 506 kts 84°
2026-04-24 02:13 32.70964 -115.93944 31110 ft 510 kts 84°
2026-04-24 02:13 32.71357 -115.89736 31393 ft 513 kts 84°
2026-04-24 02:13 32.71752 -115.85519 31672 ft 516 kts 84°
2026-04-24 02:13 32.72147 -115.81290 32068 ft 515 kts 84°
2026-04-24 02:14 32.72540 -115.77059 32482 ft 515 kts 84°
2026-04-24 02:14 32.72926 -115.72834 32885 ft 515 kts 84°
2026-04-24 02:14 32.73307 -115.68596 33301 ft 515 kts 84°
2026-04-24 02:14 32.73687 -115.64360 33728 ft 515 kts 84°
2026-04-24 02:15 32.74070 -115.60082 34097 ft 515 kts 84°
2026-04-24 02:15 32.74450 -115.55849 34441 ft 515 kts 84°
2026-04-24 02:15 32.74828 -115.51607 34742 ft 516 kts 84°
2026-04-24 02:15 32.75122 -115.47419 34838 ft 513 kts 87°
2026-04-24 02:16 32.75364 -115.39065 34877 ft 502 kts 90°
2026-04-24 02:16 32.75401 -115.30796 34879 ft 500 kts 90°
2026-04-24 02:17 32.75511 -115.22540 34878 ft 500 kts 89°
2026-04-24 02:17 32.75707 -115.14370 34878 ft 500 kts 89°
2026-04-24 02:18 32.75919 -115.06227 34839 ft 480 kts 89°
2026-04-24 02:18 32.76011 -115.02312 34722 ft 469 kts 89°
2026-04-24 02:18 32.76095 -114.98477 34555 ft 460 kts 89°
2026-04-24 02:19 32.76172 -114.94701 34243 ft 455 kts 89°
2026-04-24 02:19 32.76243 -114.90951 33880 ft 453 kts 89°
2026-04-24 02:19 32.76311 -114.87170 33446 ft 451 kts 89°
2026-04-24 02:19 32.76380 -114.83444 33017 ft 449 kts 89°
2026-04-24 02:20 32.76450 -114.79741 32603 ft 448 kts 89°
2026-04-24 02:20 32.76523 -114.76049 32195 ft 446 kts 89°
2026-04-24 02:20 32.76594 -114.72370 31792 ft 445 kts 89°
2026-04-24 02:20 32.76663 -114.68697 31393 ft 443 kts 89°
2026-04-24 02:21 32.76730 -114.65042 31010 ft 442 kts 89°
2026-04-24 02:21 32.76797 -114.61405 30617 ft 440 kts 89°
2026-04-24 02:21 32.76857 -114.57779 30238 ft 438 kts 90°
2026-04-24 02:21 32.76908 -114.54171 29853 ft 436 kts 90°
2026-04-24 02:22 32.76955 -114.50566 29407 ft 435 kts 90°
2026-04-24 02:22 32.77002 -114.46978 28972 ft 435 kts 90°
2026-04-24 02:22 32.77049 -114.43389 28541 ft 434 kts 90°
2026-04-24 02:22 32.77094 -114.39799 28125 ft 434 kts 89°
2026-04-24 02:23 32.77142 -114.36212 27701 ft 433 kts 89°
2026-04-24 02:23 32.77190 -114.32637 27289 ft 433 kts 89°
2026-04-24 02:23 32.77235 -114.29059 26883 ft 433 kts 89°
2026-04-24 02:23 32.77279 -114.25485 26487 ft 432 kts 89°
2026-04-24 02:24 32.77320 -114.21916 26093 ft 432 kts 89°
2026-04-24 02:24 32.77362 -114.18392 25735 ft 431 kts 89°
2026-04-24 02:24 32.77403 -114.14829 25447 ft 431 kts 89°
2026-04-24 02:24 32.77440 -114.11267 25228 ft 431 kts 89°
2026-04-24 02:25 32.77482 -114.07702 25033 ft 431 kts 88°
2026-04-24 02:25 32.77794 -114.04167 24994 ft 430 kts 81°
2026-04-24 02:25 32.78194 -114.00638 25006 ft 431 kts 82°
2026-04-24 02:25 32.78586 -113.97101 25005 ft 431 kts 82°
2026-04-24 02:26 32.78972 -113.93561 25006 ft 431 kts 82°
2026-04-24 02:26 32.79356 -113.90023 25004 ft 431 kts 82°
2026-04-24 02:26 32.79740 -113.86486 25010 ft 431 kts 82°
2026-04-24 02:26 32.80125 -113.82947 25004 ft 433 kts 82°
2026-04-24 02:27 32.80511 -113.79399 25003 ft 432 kts 82°
2026-04-24 02:27 32.80895 -113.75861 25003 ft 432 kts 82°
2026-04-24 02:27 32.81441 -113.72351 25002 ft 430 kts 72°
2026-04-24 02:27 32.82466 -113.69027 25001 ft 427 kts 61°
2026-04-24 02:28 32.83936 -113.65977 24920 ft 423 kts 51°
2026-04-24 02:28 32.85769 -113.63298 24685 ft 415 kts 43°
2026-04-24 02:28 32.87690 -113.60739 24451 ft 414 kts 43°
2026-04-24 02:28 32.89600 -113.58183 24225 ft 412 kts 43°
2026-04-24 02:29 32.91493 -113.55636 24000 ft 410 kts 44°
2026-04-24 02:29 32.93375 -113.53095 23774 ft 408 kts 44°
2026-04-24 02:29 32.95248 -113.50562 23515 ft 406 kts 44°
2026-04-24 02:29 32.97108 -113.48045 23201 ft 404 kts 44°
2026-04-24 02:30 32.98956 -113.45545 22883 ft 401 kts 44°
2026-04-24 02:30 33.00795 -113.43054 22569 ft 398 kts 44°
2026-04-24 02:30 33.02621 -113.40579 22263 ft 396 kts 44°
2026-04-24 02:30 33.04437 -113.38116 22000 ft 394 kts 44°
2026-04-24 02:31 33.06269 -113.35639 21990 ft 406 kts 44°
2026-04-24 02:31 33.08183 -113.33069 21811 ft 421 kts 44°
2026-04-24 02:31 33.10133 -113.30448 21312 ft 420 kts 44°
2026-04-24 02:31 33.12066 -113.27834 21077 ft 418 kts 44°
2026-04-24 02:32 33.13984 -113.25236 20810 ft 417 kts 44°
2026-04-24 02:32 33.15893 -113.22641 20548 ft 415 kts 44°
2026-04-24 02:32 33.17792 -113.20058 20292 ft 413 kts 44°
2026-04-24 02:32 33.19685 -113.17486 20027 ft 411 kts 44°
2026-04-24 02:33 33.21568 -113.14930 19775 ft 409 kts 44°
2026-04-24 02:33 33.23447 -113.12382 19517 ft 408 kts 44°
2026-04-24 02:33 33.25250 -113.09767 19254 ft 409 kts 52°
2026-04-24 02:33 33.26605 -113.06770 19025 ft 412 kts 66°
2026-04-24 02:34 33.27375 -113.03541 18968 ft 404 kts 79°
2026-04-24 02:34 33.27599 -113.00218 18914 ft 399 kts 88°
2026-04-24 02:34 33.27684 -112.96873 18237 ft 405 kts 88°
2026-04-24 02:34 33.27770 -112.93549 18058 ft 394 kts 88°
2026-04-24 02:35 33.27853 -112.90307 17714 ft 388 kts 88°
2026-04-24 02:35 33.27933 -112.87093 17262 ft 386 kts 88°
2026-04-24 02:35 33.28010 -112.83902 17044 ft 383 kts 88°
2026-04-24 02:35 33.28120 -112.80726 17003 ft 382 kts 85°
2026-04-24 02:36 33.28346 -112.77566 17016 ft 382 kts 83°
2026-04-24 02:36 33.28653 -112.74408 17015 ft 382 kts 82°
2026-04-24 02:36 33.28995 -112.71231 16348 ft 390 kts 82°
2026-04-24 02:36 33.29344 -112.68025 16037 ft 384 kts 82°
2026-04-24 02:37 33.29667 -112.64909 15909 ft 372 kts 82°
2026-04-24 02:37 33.29964 -112.61880 15783 ft 362 kts 83°
2026-04-24 02:37 33.30245 -112.58924 15572 ft 355 kts 83°
2026-04-24 02:37 33.30514 -112.56002 15257 ft 352 kts 83°
2026-04-24 02:38 33.30778 -112.53100 14941 ft 350 kts 83°
2026-04-24 02:38 33.30957 -112.51149 14715 ft 349 kts 83°
2026-04-24 02:38 33.31223 -112.48252 14079 ft 357 kts 83°
2026-04-24 02:38 33.31501 -112.45232 13123 ft 373 kts 83°
2026-04-24 02:39 33.31789 -112.42091 12271 ft 383 kts 83°
2026-04-24 02:39 33.32075 -112.38958 11900 ft 375 kts 83°
2026-04-24 02:39 33.32355 -112.35885 11540 ft 368 kts 83°
2026-04-24 02:39 33.32628 -112.32874 11187 ft 362 kts 83°
2026-04-24 02:40 33.32896 -112.29908 10842 ft 355 kts 83°
2026-04-24 02:40 33.33160 -112.27004 10478 ft 346 kts 83°
2026-04-24 02:40 33.33413 -112.24212 10164 ft 330 kts 82°
2026-04-24 02:40 33.33657 -112.21538 9850 ft 317 kts 82°
2026-04-24 02:41 33.33889 -112.18976 9530 ft 304 kts 82°
2026-04-24 02:41 33.34107 -112.16530 9360 ft 286 kts 82°
2026-04-24 02:41 33.34312 -112.14234 9190 ft 271 kts 82°
2026-04-24 02:41 33.34510 -112.12033 8961 ft 260 kts 83°
2026-04-24 02:42 33.34705 -112.09888 8465 ft 259 kts 83°
2026-04-24 02:42 33.34743 -112.07744 7976 ft 258 kts 90°
2026-04-24 02:42 33.34713 -112.05615 7540 ft 255 kts 90°
2026-04-24 02:42 33.34686 -112.03507 7207 ft 252 kts 90°
2026-04-24 02:43 33.34658 -112.01417 6950 ft 250 kts 90°
2026-04-24 02:43 33.34631 -111.99354 6675 ft 247 kts 90°
2026-04-24 02:43 33.34604 -111.97297 6386 ft 247 kts 90°
2026-04-24 02:43 33.34577 -111.95251 6082 ft 246 kts 91°
2026-04-24 02:44 33.34550 -111.93216 5794 ft 244 kts 91°
2026-04-24 02:44 33.34567 -111.91182 5492 ft 244 kts 89°
2026-04-24 02:44 33.34614 -111.89157 5174 ft 243 kts 88°
2026-04-24 02:44 33.34669 -111.87113 4848 ft 243 kts 88°
2026-04-24 02:45 33.34723 -111.85091 4548 ft 242 kts 88°
2026-04-24 02:45 33.34793 -111.83118 4548 ft 242 kts 83°
2026-04-24 02:45 33.35397 -111.81260 4496 ft 242 kts 51°
2026-04-24 02:45 33.36688 -111.80070 4363 ft 230 kts 17°
2026-04-24 02:46 33.38200 -111.79852 4243 ft 214 kts 353°
2026-04-24 02:46 33.39668 -111.80022 4118 ft 203 kts 346°
2026-04-24 02:46 33.41019 -111.80391 4032 ft 196 kts 343°
2026-04-24 02:46 33.42319 -111.80775 4023 ft 194 kts 340°
2026-04-24 02:47 33.43402 -111.81540 4045 ft 172 kts 310°
2026-04-24 02:47 33.43957 -111.82692 4019 ft 152 kts 284°
2026-04-24 02:47 33.44057 -111.83926 3779 ft 149 kts 268°
2026-04-24 02:47 33.44057 -111.85166 3536 ft 148 kts 269°
2026-04-24 02:48 33.44059 -111.86349 3313 ft 137 kts 269°
2026-04-24 02:48 33.44063 -111.87462 3089 ft 132 kts 268°
2026-04-24 02:48 33.44066 -111.88541 2901 ft 128 kts 268°
2026-04-24 02:48 33.44068 -111.89599 2734 ft 127 kts 269°
2026-04-24 02:49 33.44070 -111.90651 2573 ft 125 kts 269°
2026-04-24 02:49 33.44071 -111.91699 2404 ft 127 kts 268°
2026-04-24 02:49 33.44073 -111.92751 2239 ft 126 kts 268°
2026-04-24 02:49 33.44074 -111.93795 2078 ft 125 kts 270°
2026-04-24 02:50 33.44076 -111.94846 1898 ft 128 kts 270°
2026-04-24 02:50 33.44081 -111.95906 1749 ft 126 kts 268°
2026-04-24 02:50 33.44089 -111.96963 1561 ft 132 kts 271°
2026-04-24 02:50 33.44081 -111.98060 1391 ft 130 kts 268°
2026-04-24 02:51 33.44075 -111.99113 1212 ft 126 kts 270°
2026-04-24 02:51 33.44081 -112.00154 1140 ft 124 kts 268°
2026-04-24 02:51 33.44082 -112.01104 1133 ft 85 kts 270°
2026-04-24 02:51 33.44085 -112.01507 1132 ft 25 kts 270°
2026-04-24 02:52 33.44036 -112.01704 1133 ft 25 kts 228°
2026-04-24 02:52 33.43948 -112.01781 1133 ft 14 kts 189°
2026-04-24 02:52 33.43901 -112.01702 1131 ft 13 kts 89°
2026-04-24 02:52 33.43903 -112.01629 1131 ft 7 kts 89°
2026-04-24 02:53 33.43903 -112.01564 1131 ft 8 kts 90°
2026-04-24 02:53 33.43903 -112.01491 1131 ft 9 kts 90°
2026-04-24 02:53 33.43901 -112.01413 1131 ft 10 kts 92°
2026-04-24 02:53 33.43901 -112.01327 1131 ft 11 kts 88°
2026-04-24 02:54 33.43902 -112.01237 1131 ft 11 kts 90°
2026-04-24 02:54 33.43902 -112.01141 1131 ft 12 kts 89°
2026-04-24 02:54 33.43901 -112.01039 1131 ft 12 kts 91°
2026-04-24 02:54 33.43901 -112.00933 1131 ft 13 kts 90°
2026-04-24 02:55 33.43901 -112.00821 1131 ft 14 kts 89°
2026-04-24 02:55 33.43902 -112.00706 1127 ft 14 kts 89°
2026-04-24 02:55 33.43902 -112.00585 1131 ft 15 kts 92°
2026-04-24 02:55 33.43903 -112.00459 1131 ft 15 kts 87°
2026-04-24 02:56 33.43905 -112.00329 1131 ft 16 kts 90°
2026-04-24 02:56 33.43905 -112.00194 1131 ft 16 kts 89°
2026-04-24 02:56 33.43897 -112.00098 1131 ft 10 kts 122°
2026-04-24 02:56 33.43831 -112.00078 1133 ft 11 kts 179°
2026-04-24 02:57 33.43790 -112.00102 1134 ft 6 kts 249°
2026-04-24 02:57 33.43789 -112.00137 1134 ft 0 kts 270°